Time,TemperatureF,DewpointF,PressureIn,WindDirection,WindDirectionDegrees,WindSpeedMPH,WindSpeedGustMPH,Humidity,HourlyPrecipIn,Conditions,Clouds,dailyrainin,SolarRadiationWatts/m^2,SoftwareType,DateUTC
2013-05-08 00:01:00,65.0,41.0,-100.00,West,264,6.0,10.0,41,0.00,,,-99.99,1.000000,,2013-05-08 07:01:00,
2013-05-08 00:32:00,61.0,38.0,-100.00,WSW,253,3.0,8.0,43,0.00,,,0.00,1.000000,,2013-05-08 07:32:00,
2013-05-08 00:42:00,61.0,38.0,-100.00,WSW,253,3.0,8.0,43,0.00,,,0.00,1.000000,,2013-05-08 07:42:00,
2013-05-08 00:52:00,61.0,38.0,-100.00,WSW,253,3.0,8.0,43,0.00,,,0.00,1.000000,,2013-05-08 07:52:00,
2013-05-08 01:01:00,61.0,38.0,-100.00,WSW,253,3.0,8.0,43,0.00,,,0.00,1.000000,,2013-05-08 08:01:00,
2013-05-08 01:22:00,57.0,37.0,-100.00,NW,323,4.0,7.0,47,0.00,,,0.00,1.000000,,2013-05-08 08:22:00,
2013-05-08 01:32:00,57.0,37.0,-100.00,NW,323,4.0,7.0,47,0.00,,,0.00,1.000000,,2013-05-08 08:32:00,
2013-05-08 01:42:00,57.0,37.0,-100.00,NW,323,4.0,7.0,47,0.00,,,0.00,1.000000,,2013-05-08 08:42:00,
2013-05-08 01:52:00,57.0,37.0,-100.00,NW,323,4.0,7.0,47,0.00,,,0.00,1.000000,,2013-05-08 08:52:00,
2013-05-08 02:01:00,57.0,37.0,-100.00,NW,323,4.0,7.0,47,0.00,,,0.00,1.000000,,2013-05-08 09:01:00,
2013-05-08 02:32:00,56.0,37.0,-100.00,NNW,340,3.0,6.0,49,0.00,,,0.00,1.000000,,2013-05-08 09:32:00,
2013-05-08 02:42:00,56.0,37.0,-100.00,NNW,340,3.0,6.0,49,0.00,,,0.00,1.000000,,2013-05-08 09:42:00,
2013-05-08 02:53:00,56.0,37.0,-100.00,NNW,340,3.0,6.0,49,0.00,,,0.00,1.000000,,2013-05-08 09:53:00,
2013-05-08 03:02:00,56.0,37.0,-100.00,NNW,340,3.0,6.0,49,0.00,,,0.00,1.000000,,2013-05-08 10:02:00,
2013-05-08 03:33:00,52.0,35.0,-100.00,East,100,1.0,3.0,53,0.00,,,0.00,1.000000,,2013-05-08 10:33:00,
2013-05-08 03:42:00,52.0,35.0,-100.00,East,100,1.0,3.0,53,0.00,,,0.00,1.000000,,2013-05-08 10:42:00,
2013-05-08 03:52:00,52.0,35.0,-100.00,East,100,1.0,3.0,53,0.00,,,0.00,1.000000,,2013-05-08 10:52:00,
2013-05-08 04:02:00,52.0,35.0,-100.00,East,100,1.0,3.0,53,0.00,,,0.00,1.000000,,2013-05-08 11:02:00,
2013-05-08 04:32:00,55.0,37.0,-100.00,SSE,157,2.0,6.0,51,0.00,,,0.00,1.000000,,2013-05-08 11:32:00,
2013-05-08 04:42:00,55.0,37.0,-100.00,SSE,157,2.0,6.0,51,0.00,,,0.00,1.000000,,2013-05-08 11:42:00,
2013-05-08 04:52:00,55.0,37.0,-100.00,SSE,157,2.0,6.0,51,0.00,,,0.00,1.000000,,2013-05-08 11:52:00,
2013-05-08 05:01:00,55.0,37.0,-100.00,SSE,157,2.0,6.0,51,0.00,,,0.00,1.000000,,2013-05-08 12:01:00,
2013-05-08 06:32:00,53.0,40.0,-100.00,NNE,27,3.0,4.0,61,-99.99,,,0.00,14.000000,,2013-05-08 13:32:00,
2013-05-08 06:42:00,53.0,40.0,-100.00,NNE,27,3.0,4.0,61,-99.99,,,0.00,14.000000,,2013-05-08 13:42:00,
2013-05-08 06:52:00,53.0,40.0,-100.00,NNE,27,3.0,4.0,61,-99.99,,,0.00,14.000000,,2013-05-08 13:52:00,
2013-05-08 07:02:00,53.0,40.0,-100.00,NNE,27,3.0,4.0,61,-99.99,,,0.00,14.000000,,2013-05-08 14:02:00,
2013-05-08 07:32:00,62.0,40.0,-100.00,SSE,161,2.0,4.0,44,0.00,,,0.00,116.000000,,2013-05-08 14:32:00,
2013-05-08 07:42:00,62.0,40.0,-100.00,SSE,161,2.0,4.0,44,0.00,,,0.00,116.000000,,2013-05-08 14:42:00,
2013-05-08 07:52:00,62.0,40.0,-100.00,SSE,161,2.0,4.0,44,0.00,,,0.00,116.000000,,2013-05-08 14:52:00,
2013-05-08 08:01:00,62.0,40.0,-100.00,SSE,161,2.0,4.0,44,0.00,,,0.00,116.000000,,2013-05-08 15:01:00,
2013-05-08 08:33:00,68.0,42.0,-100.00,SE,136,4.0,6.0,39,0.00,,,0.00,378.000000,,2013-05-08 15:33:00,
2013-05-08 08:42:00,68.0,42.0,-100.00,SE,136,4.0,6.0,39,0.00,,,0.00,378.000000,,2013-05-08 15:42:00,
2013-05-08 08:53:00,68.0,42.0,-100.00,SE,136,4.0,6.0,39,0.00,,,0.00,378.000000,,2013-05-08 15:53:00,
2013-05-08 09:03:00,68.0,42.0,-100.00,SE,136,4.0,6.0,39,0.00,,,0.00,378.000000,,2013-05-08 16:03:00,
2013-05-08 09:33:00,70.0,42.0,-100.00,South,169,4.0,7.0,36,0.00,,,-99.99,541.000000,,2013-05-08 16:33:00,
2013-05-08 09:42:00,70.0,42.0,-100.00,South,169,4.0,7.0,36,0.00,,,-99.99,541.000000,,2013-05-08 16:42:00,
2013-05-08 09:52:00,70.0,42.0,-100.00,South,169,4.0,7.0,36,0.00,,,-99.99,541.000000,,2013-05-08 16:52:00,
2013-05-08 10:02:00,70.0,42.0,-100.00,South,169,4.0,7.0,36,0.00,,,-99.99,541.000000,,2013-05-08 17:02:00,
2013-05-08 10:52:00,72.0,41.0,-100.00,SW,235,4.0,8.0,32,0.00,,,-99.99,647.000000,,2013-05-08 17:52:00,
2013-05-08 11:02:00,72.0,41.0,-100.00,SW,235,4.0,8.0,32,0.00,,,-99.99,647.000000,,2013-05-08 18:02:00,
2013-05-08 11:32:00,77.0,39.0,-100.00,SSE,147,4.0,11.0,26,0.00,,,0.00,763.000000,,2013-05-08 18:32:00,
2013-05-08 11:42:00,77.0,39.0,-100.00,SSE,147,4.0,11.0,26,0.00,,,0.00,763.000000,,2013-05-08 18:42:00,
2013-05-08 11:52:00,77.0,39.0,-100.00,SSE,147,4.0,11.0,26,0.00,,,0.00,763.000000,,2013-05-08 18:52:00,
2013-05-08 12:01:00,77.0,39.0,-100.00,SSE,147,4.0,11.0,26,0.00,,,0.00,763.000000,,2013-05-08 19:01:00,
2013-05-08 12:32:00,77.0,34.0,-100.00,SW,227,5.0,11.0,21,0.00,,,0.00,859.000000,,2013-05-08 19:32:00,
2013-05-08 12:42:00,77.0,34.0,-100.00,SW,227,5.0,11.0,21,0.00,,,0.00,859.000000,,2013-05-08 19:42:00,
2013-05-08 12:52:00,77.0,34.0,-100.00,SW,227,5.0,11.0,21,0.00,,,0.00,859.000000,,2013-05-08 19:52:00,
2013-05-08 13:01:00,77.0,34.0,-100.00,SW,227,5.0,11.0,21,0.00,,,0.00,859.000000,,2013-05-08 20:01:00,
2013-05-08 13:32:00,81.0,33.0,-100.00,South,190,7.0,12.0,18,0.00,,,0.00,976.000000,,2013-05-08 20:32:00,
2013-05-08 13:42:00,81.0,33.0,-100.00,South,190,7.0,12.0,18,0.00,,,0.00,976.000000,,2013-05-08 20:42:00,
2013-05-08 13:52:00,81.0,33.0,-100.00,South,190,7.0,12.0,18,0.00,,,0.00,976.000000,,2013-05-08 20:52:00,
2013-05-08 14:01:00,81.0,33.0,-100.00,South,190,7.0,12.0,18,0.00,,,0.00,976.000000,,2013-05-08 21:01:00,
2013-05-08 14:33:00,79.0,30.0,-100.00,SW,234,6.0,14.0,17,0.00,,,0.00,825.000000,,2013-05-08 21:33:00,
2013-05-08 14:43:00,79.0,30.0,-100.00,SW,234,6.0,14.0,17,0.00,,,0.00,825.000000,,2013-05-08 21:43:00,
2013-05-08 14:53:00,79.0,30.0,-100.00,SW,234,6.0,14.0,17,0.00,,,0.00,825.000000,,2013-05-08 21:53:00,
2013-05-08 15:02:00,79.0,30.0,-100.00,SW,234,6.0,14.0,17,0.00,,,0.00,825.000000,,2013-05-08 22:02:00,
2013-05-08 15:33:00,82.0,31.0,-100.00,WNW,288,9.0,16.0,16,0.00,,,0.00,709.000000,,2013-05-08 22:33:00,
2013-05-08 15:42:00,82.0,31.0,-100.00,WNW,288,9.0,16.0,16,0.00,,,0.00,709.000000,,2013-05-08 22:42:00,
2013-05-08 15:52:00,82.0,31.0,-100.00,WNW,288,9.0,16.0,16,0.00,,,0.00,709.000000,,2013-05-08 22:52:00,
2013-05-08 16:01:00,82.0,31.0,-100.00,WNW,288,9.0,16.0,16,0.00,,,0.00,709.000000,,2013-05-08 23:01:00,
2013-05-08 16:32:00,79.0,32.0,-100.00,WNW,291,9.0,15.0,18,0.00,,,0.00,486.000000,,2013-05-08 23:32:00,
2013-05-08 16:42:00,79.0,32.0,-100.00,WNW,291,9.0,15.0,18,0.00,,,0.00,486.000000,,2013-05-08 23:42:00,
2013-05-08 16:52:00,79.0,32.0,-100.00,WNW,291,9.0,15.0,18,0.00,,,0.00,486.000000,,2013-05-08 23:52:00,
2013-05-08 17:01:00,79.0,32.0,-100.00,WNW,291,9.0,15.0,18,0.00,,,0.00,486.000000,,2013-05-09 00:01:00,
2013-05-08 18:32:00,76.0,33.0,-100.00,NW,310,7.0,17.0,21,-99.99,,,0.00,132.000000,,2013-05-09 01:32:00,
2013-05-08 18:42:00,76.0,33.0,-100.00,NW,310,7.0,17.0,21,-99.99,,,0.00,132.000000,,2013-05-09 01:42:00,
2013-05-08 18:52:00,76.0,33.0,-100.00,NW,310,7.0,17.0,21,-99.99,,,0.00,132.000000,,2013-05-09 01:52:00,
2013-05-08 19:01:00,76.0,33.0,-100.00,NW,310,7.0,17.0,21,-99.99,,,0.00,132.000000,,2013-05-09 02:01:00,
2013-05-08 19:33:00,75.0,32.0,-100.00,NW,309,8.0,13.0,21,0.00,,,0.00,82.000000,,2013-05-09 02:33:00,
2013-05-08 19:42:00,75.0,32.0,-100.00,NW,309,8.0,13.0,21,0.00,,,0.00,82.000000,,2013-05-09 02:42:00,
2013-05-08 19:52:00,75.0,32.0,-100.00,NW,309,8.0,13.0,21,0.00,,,0.00,82.000000,,2013-05-09 02:52:00,
2013-05-08 20:01:00,75.0,32.0,-100.00,NW,309,8.0,13.0,21,0.00,,,0.00,82.000000,,2013-05-09 03:01:00,
2013-05-08 20:33:00,72.0,33.0,-100.00,WNW,291,4.0,11.0,24,0.00,,,0.00,1.000000,,2013-05-09 03:33:00,
2013-05-08 20:43:00,72.0,33.0,-100.00,WNW,291,4.0,11.0,24,0.00,,,0.00,1.000000,,2013-05-09 03:43:00,
2013-05-08 20:53:00,72.0,33.0,-100.00,WNW,291,4.0,11.0,24,0.00,,,0.00,1.000000,,2013-05-09 03:53:00,
2013-05-08 21:03:00,72.0,33.0,-100.00,WNW,291,4.0,11.0,24,0.00,,,0.00,1.000000,,2013-05-09 04:03:00,
2013-05-08 21:33:00,69.0,33.0,-100.00,WNW,302,2.0,9.0,26,0.00,,,0.00,1.000000,,2013-05-09 04:33:00,
2013-05-08 21:43:00,69.0,33.0,-100.00,WNW,302,2.0,9.0,26,0.00,,,0.00,1.000000,,2013-05-09 04:43:00,
2013-05-08 21:53:00,69.0,33.0,-100.00,WNW,302,2.0,9.0,26,0.00,,,0.00,1.000000,,2013-05-09 04:53:00,
2013-05-08 22:02:00,69.0,33.0,-100.00,WNW,302,2.0,9.0,26,0.00,,,0.00,1.000000,,2013-05-09 05:02:00,
2013-05-08 22:32:00,64.0,34.0,-100.00,NNW,342,2.0,5.0,32,0.00,,,0.00,1.000000,,2013-05-09 05:32:00,
2013-05-08 22:42:00,64.0,34.0,-100.00,NNW,342,2.0,5.0,32,0.00,,,0.00,1.000000,,2013-05-09 05:42:00,
2013-05-08 22:52:00,64.0,34.0,-100.00,NNW,342,2.0,5.0,32,0.00,,,0.00,1.000000,,2013-05-09 05:52:00,
2013-05-08 23:01:00,64.0,34.0,-100.00,NNW,342,2.0,5.0,32,0.00,,,0.00,1.000000,,2013-05-09 06:01:00,
2013-05-08 23:32:00,68.0,36.0,-100.00,WNW,282,6.0,11.0,31,0.00,,,0.00,1.000000,,2013-05-09 06:32:00,
2013-05-08 23:42:00,68.0,36.0,-100.00,WNW,282,6.0,11.0,31,0.00,,,0.00,1.000000,,2013-05-09 06:42:00,
2013-05-08 23:52:00,68.0,36.0,-100.00,WNW,282,6.0,11.0,31,0.00,,,0.00,1.000000,,2013-05-09 06:52:00,